Milford, UT

1:24 AM MDT on August 30, 2016 (GMT -0600)
Milford Municipal

Weather History for KMLF - May, 2014

Change the Weather History Date:

Thursday, May 8, 2014

  Actual Average Record
Temperature  
Mean Temperature 48 °F -  
Max Temperature 63 °F 69 °F 82 °F (2001)
Min Temperature 34 °F 35 °F 28 °F (2002)
Degree Days  
Heating Degree Days 16    
Moisture  
Dew Point 32 °F    
Average Humidity 55    
Maximum Humidity 96    
Minimum Humidity 15    
Precipitation  
Precipitation 0.00 in - - ()
Sea Level Pressure  
Sea Level Pressure 29.93 in    
Wind  
Wind Speed 6 mph (South)    
Max Wind Speed 17 mph    
Max Gust Speed -    
Visibility 10 miles    
Events      
Averages and records for this station are not official NWS values.
T = Trace of Precipitation, MM = Missing Value Source: NWS Daily Summary

Daily Weather History Graph

Daily Weather History Graph

Search for Another Location

Airport or City:

Trip Planner

Search our weather history database for the weather conditions in past years. The results will help you decide how hot, cold, wet, or windy it might be!

Date:

Astronomy

May. 08, 2014 Rise Set
Actual Time 6:27 AM MDT 8:30 PM MDT
Civil Twilight 5:58 AM MDT 8:59 PM MDT
Nautical Twilight 5:22 AM MDT 9:35 PM MDT
Astronomical Twilight 4:44 AM MDT 10:13 PM MDT
Moon 2:39 PM MDT (5/8) 2:55 AM MDT (5/8)
Length of Visible Light 15h 01m
Length of Day
14h 03m
Waxing Gibbous, 65% of the Moon is Illuminated
May 8
Waxing Gibbous
May 14
Full
May 21
Last Quarter
May 28
New
Jun 5
First Quarter

Hourly Weather History & Observations

Time (MDT) Temp. Windchill Dew Point Humidity Pressure Visibility Wind Dir Wind Speed Gust Speed Precip Events Conditions
12:52 AM 42.8 °F 39.3 °F 37.4 °F 81% 29.94 in 10.0 mi SSE 5.8 mph - N/A   Overcast
1:52 AM 39.9 °F 35.8 °F 37.0 °F 89% 29.91 in 10.0 mi SSW 5.8 mph - N/A   Scattered Clouds
2:52 AM 37.9 °F 35.5 °F 36.0 °F 93% 29.92 in 10.0 mi SSW 3.5 mph - N/A   Mostly Cloudy
3:52 AM 37.0 °F 31.0 °F 35.1 °F 93% 29.92 in 10.0 mi WSW 8.1 mph - N/A   Overcast
4:52 AM 35.1 °F 31.0 °F 34.0 °F 96% 29.92 in 10.0 mi SSW 4.6 mph - N/A   Overcast
5:52 AM 35.1 °F - 32.0 °F 89% 29.95 in 10.0 mi Calm Calm - N/A   Scattered Clouds
6:52 AM 34.0 °F 28.8 °F 32.0 °F 92% 29.97 in 10.0 mi SSW 5.8 mph - N/A   Partly Cloudy
7:52 AM 36.0 °F 30.3 °F 34.0 °F 93% 29.98 in 10.0 mi South 6.9 mph - N/A   Clear
8:52 AM 42.8 °F 36.6 °F 37.4 °F 81% 30.02 in 10.0 mi South 11.5 mph - N/A   Clear
9:52 AM 46.9 °F - 37.9 °F 71% 29.99 in 10.0 mi South 9.2 mph - N/A   Clear
10:52 AM 50.0 °F - 36.0 °F 59% 29.97 in 10.0 mi South 5.8 mph - N/A   Clear
11:52 AM 53.6 °F - 32.0 °F 44% 30.04 in 10.0 mi Calm Calm - N/A   Partly Cloudy
12:52 PM 54.0 °F - 30.0 °F 40% 29.96 in 10.0 mi East 3.5 mph - N/A   Mostly Cloudy
1:52 PM 57.9 °F - 28.9 °F 33% 29.95 in 10.0 mi NNE 4.6 mph - N/A   Scattered Clouds
2:52 PM 59.0 °F - 30.0 °F 33% 29.94 in 10.0 mi Variable 3.5 mph - N/A   Scattered Clouds
3:52 PM 60.1 °F - 30.0 °F 32% 29.92 in 10.0 mi Variable 6.9 mph - N/A   Scattered Clouds
4:52 PM 62.1 °F - 28.0 °F 28% 29.90 in 10.0 mi SE 11.5 mph - N/A   Mostly Cloudy
5:52 PM 62.6 °F - 26.6 °F 26% 29.96 in 10.0 mi Variable 3.5 mph - N/A   Clear
6:52 PM 62.1 °F - 26.1 °F 25% 29.88 in 10.0 mi SSE 4.6 mph - N/A   Partly Cloudy
7:52 PM 60.1 °F - 30.0 °F 32% 29.87 in 10.0 mi SE 4.6 mph - N/A   Scattered Clouds
8:52 PM 54.0 °F - 36.0 °F 51% 29.87 in 10.0 mi East 3.5 mph - N/A   Scattered Clouds
9:52 PM 55.9 °F - 28.9 °F 36% 29.86 in 10.0 mi South 17.3 mph - N/A   Clear
10:52 PM 53.1 °F - 28.9 °F 40% 29.88 in 10.0 mi South 12.7 mph - N/A   Clear
11:52 PM 53.1 °F - 26.1 °F 35% 29.87 in 10.0 mi South 16.1 mph - N/A   Clear